Dewpoint
21 17 15 16 18 18 19 17 16 16 16 16 14 14 15 18 17 16 17 19 21 23 23 24 25 32 38 43 50 51 57 62 64 63 62 63 63 64 66 66 66 67 67 66
15 15 17 18 18 18 18 16 18 19 24 21 19 18 17 17 17 16 17 19 19 20 19 19 21 23 32 39 42 53 57 61 64 63 63 61 62 64 64 66 66 66 68 67
14 14 16 17 17 16 19 22 24 24 25 23 19 17 18 19 18 17 18 17 18 18 18 19 20 22 28 34 38 43 54 60 65 64 63 62 63 63 63 63 64 65 67 68
15 14 15 13 17 24 19 26 25 24 22 18 19 14 16 18 16 17 15 15 16 20 31 35 35 28 27 27 27 40 52 57 65 65 64 62 60 60 61 62 63 64 66 69
13 13 13 13 19 26 20 26 24 25 23 21 19 15 15 16 15 16 17 30 35 38 38 38 38 38 39 37 27 35 48 54 60 66 64 62 59 59 61 61 62 65 67 69
14 17 17 20 27 25 26 24 23 25 20 17 18 15 14 14 16 19 33 37 37 38 37 37 38 39 40 41 41 34 52 54 56 63 64 62 60 58 60 62 63 66 67 68
15 16 28 27 23 21 21 19 16 14 16 16 18 20 16 19 26 31 35 36 36 37 35 36 37 37 41 44 44 41 41 54 56 59 61 59 58 56 59 62 64 66 66 66
15 14 21 25 22 18 19 20 18 13 15 12 18 19 17 21 34 36 37 37 37 35 34 37 37 39 44 44 44 43 40 49 56 57 58 59 56 56 60 63 65 66 67 67
19 20 22 21 23 21 19 18 21 20 20 18 19 19 21 23 31 34 34 33 36 38 39 40 41 43 46 44 41 42 46 39 53 57 57 57 58 59 61 64 66 67 66 67
22 21 23 24 23 26 24 26 21 21 17 16 18 18 19 21 25 34 33 36 39 40 39 39 42 43 46 43 43 43 49 39 50 53 54 57 59 59 62 65 66 66 66 67
28 24 23 24 22 20 23 24 28 25 24 16 17 17 27 28 31 34 35 38 40 38 38 41 43 45 45 44 44 42 48 44 48 51 55 59 62 63 65 65 66 67 67 67
30 28 25 25 26 30 27 27 28 21 19 26 24 21 25 32 34 36 37 39 39 40 41 43 46 46 46 46 46 45 51 47 47 50 55 60 63 65 65 66 67 66 67 67
30 26 24 20 20 26 27 30 29 27 26 25 23 20 32 35 36 37 39 40 42 43 42 43 46 48 48 49 49 57 60 55 57 61 61 63 64 66 66 66 66 66 66 66
35 28 27 22 20 24 26 28 28 29 28 25 25 24 27 29 32 36 40 41 43 44 43 46 47 48 49 51 56 56 60 59 62 64 64 64 66 66 67 66 66 66 66 66
33 28 30 29 29 29 30 30 30 29 28 27 26 25 26 30 35 37 39 40 42 44 44 46 49 49 49 49 54 57 60 63 65 65 65 65 66 66 66 66 66 66 66 65
32 27 31 30 32 31 28 29 29 27 26 27 28 26 30 34 35 36 37 38 39 40 43 46 47 49 49 51 53 58 60 63 66 65 64 65 65 65 65 65 66 65 64 64
31 30 29 24 26 28 27 28 28 30 30 29 27 28 33 33 34 35 36 37 37 40 43 41 45 46 48 50 58 57 60 60 64 64 65 64 64 64 64 64 63 63 62 62
29 28 30 27 30 23 26 35 34 32 32 32 31 31 33 34 35 37 38 38 40 37 37 38 39 41 44 50 57 58 59 59 58 63 64 63 63 62 62 61 61 61 60 61
33 33 32 28 23 26 26 35 32 31 28 32 31 32 32 35 36 36 37 39 37 37 38 38 40 42 44 49 52 59 57 59 58 59 63 62 62 61 60 59 60 60 60 59
36 37 33 30 25 16 23 35 38 36 29 33 35 34 34 35 33 34 34 37 39 39 39 39 42 42 43 48 52 59 58 57 57 60 63 62 62 60 59 59 59 58 59 58
34 34 30 29 27 26 32 39 38 29 27 35 37 36 36 36 37 38 39 40 41 40 40 40 42 42 44 49 53 58 58 56 57 58 61 62 61 59 59 59 59 58 59 58
30 30 29 30 28 24 39 38 33 33 36 39 39 39 38 39 40 40 39 39 40 41 41 41 41 43 46 49 54 58 57 59 57 56 62 61 58 58 59 59 59 59 59 58
29 33 33 33 30 34 39 37 39 41 41 41 41 41 41 40 39 40 40 40 40 41 41 41 42 44 46 50 55 58 57 57 59 60 61 60 59 59 59 59 59 59 59 58
33 33 30 30 32 35 39 41 41 43 44 42 42 40 41 40 40 40 40 40 39 40 42 43 44 45 46 49 55 57 59 59 61 60 60 60 60 59 60 60 59 59 58 59
30 31 30 31 34 37 37 39 40 42 42 42 41 40 40 40 39 40 40 42 42 42 43 45 45 45 47 50 55 58 61 62 60 60 60 60 60 59 54 50 53 59 57 58
34 32 32 30 35 37 38 41 42 40 39 39 40 40 41 41 42 42 42 43 44 43 45 45 45 47 48 50 56 58 59 61 60 59 59 58 58 57 55 54 51 41 42 46
Lifted_Index
7 6 6 7 7 7 7 7 7 7 8 8 7 6 7 8 8 8 8 8 8 8 8 7 7 6 5 4 3 2 0 -2 -3 -4 -4 -4 -3 -3 -4 -4 -4 -4 -4 -4
7 6 6 7 7 7 7 7 7 7 8 8 7 6 7 8 8 8 9 9 9 8 8 8 7 6 5 4 4 3 1 -2 -3 -4 -4 -4 -4 -4 -4 -4 -4 -4 -4 -4
6 6 6 7 7 7 7 7 7 7 7 7 6 5 5 7 8 8 9 9 9 9 9 8 8 7 6 5 5 4 2 -0 -3 -4 -5 -4 -4 -4 -4 -4 -4 -4 -4 -5
6 6 6 7 7 7 6 7 7 7 7 6 6 4 4 6 8 8 9 9 9 9 9 9 8 8 7 6 6 5 3 1 -2 -4 -5 -5 -5 -5 -5 -4 -4 -4 -4 -5
6 6 6 6 6 6 6 6 7 7 7 6 6 5 5 6 7 8 9 9 9 9 9 9 9 8 8 7 6 5 4 2 -1 -3 -4 -4 -5 -5 -4 -4 -4 -4 -4 -5
5 5 5 5 5 5 6 6 6 6 5 5 5 5 6 7 8 8 8 8 8 8 9 9 9 9 8 7 7 6 4 2 -0 -2 -3 -3 -4 -4 -3 -3 -3 -4 -5 -5
4 4 4 4 5 5 5 5 4 3 2 3 5 6 6 7 8 7 7 7 8 8 9 9 9 9 8 7 7 6 5 3 1 -1 -2 -3 -3 -3 -2 -2 -3 -4 -5 -5
3 3 3 3 4 5 5 4 3 2 2 3 5 6 7 7 6 5 5 6 7 8 9 9 9 9 8 7 7 6 5 4 2 0 -1 -2 -2 -2 -2 -2 -3 -4 -5 -5
3 3 3 3 4 4 4 4 3 3 2 2 4 5 5 4 3 2 3 4 5 7 8 9 9 8 7 7 6 5 4 4 2 1 -0 -1 -1 -1 -1 -2 -3 -4 -4 -5
3 3 3 3 3 4 4 4 3 3 2 1 2 3 3 2 2 1 1 2 3 4 5 7 7 7 6 6 5 4 3 4 3 2 0 -1 -1 -1 -1 -2 -3 -4 -4 -5
2 3 3 3 3 4 4 3 3 3 2 1 1 1 2 2 1 1 1 1 2 2 3 4 5 5 5 4 3 2 2 3 3 2 1 -0 -1 -1 -2 -3 -3 -4 -4 -5
2 2 2 3 3 3 3 3 3 3 2 2 1 1 2 2 1 1 1 1 2 2 2 2 2 2 3 2 1 -0 0 1 3 2 1 -0 -1 -2 -3 -3 -3 -4 -5 -5
2 2 2 2 3 3 3 2 3 2 2 2 2 2 2 2 1 1 1 1 1 2 2 1 0 0 0 0 -0 -1 -1 -1 0 1 -0 -1 -2 -3 -4 -4 -4 -4 -5 -5
2 2 2 2 2 2 2 2 2 2 2 2 2 2 2 1 1 1 1 1 1 1 2 1 0 -0 -1 -1 -1 -1 -2 -2 -2 -2 -2 -3 -4 -4 -4 -4 -4 -5 -5 -5
2 2 2 2 2 2 2 2 1 2 2 2 2 2 2 1 1 1 2 2 2 2 2 2 1 -0 -1 -2 -2 -2 -2 -3 -4 -4 -4 -4 -5 -5 -5 -5 -5 -5 -5 -6
2 2 2 2 2 2 2 1 1 1 1 1 1 1 1 1 1 1 2 3 2 2 2 2 2 2 1 -1 -2 -2 -3 -4 -5 -5 -5 -5 -5 -5 -5 -6 -6 -6 -6 -6
2 2 2 2 1 1 1 1 1 1 1 1 1 1 1 2 2 2 2 3 3 3 3 3 3 4 3 1 -1 -2 -3 -4 -5 -5 -5 -5 -5 -5 -6 -6 -6 -6 -6 -6
2 2 2 2 1 1 1 1 1 1 1 1 1 2 2 2 2 2 3 3 3 3 4 4 4 4 4 1 -1 -2 -2 -4 -4 -5 -5 -5 -5 -5 -6 -6 -5 -5 -5 -4
1 1 1 1 1 1 1 1 1 2 1 1 2 2 2 2 2 2 3 4 4 4 5 5 5 5 4 2 -0 -1 -1 -2 -3 -3 -4 -4 -4 -5 -6 -5 -4 -4 -3 -2
0 0 1 1 1 1 1 1 1 2 2 1 1 2 2 2 2 2 3 4 5 5 5 5 5 5 4 2 0 -1 -1 -1 -1 -2 -3 -3 -4 -5 -5 -4 -3 -2 -1 -1
1 1 1 1 1 1 1 1 1 1 1 1 1 2 2 2 2 3 4 5 6 6 5 6 6 6 5 3 1 -1 -0 0 -1 -1 -2 -3 -4 -4 -3 -2 -1 -1 0 0
1 1 1 1 1 1 1 1 1 1 1 1 1 2 2 2 3 4 5 6 7 6 6 6 7 7 5 3 1 -0 0 1 1 -0 -2 -3 -3 -3 -2 -1 -0 0 1 1
1 1 1 1 1 1 1 1 1 1 1 1 1 2 2 3 4 5 7 7 7 7 7 7 7 7 5 4 1 0 1 2 1 -0 -2 -3 -3 -2 -1 -0 -0 0 1 1
2 2 2 2 2 1 1 1 1 1 1 1 2 3 3 4 5 7 8 8 8 8 7 7 7 7 6 4 2 1 1 1 0 -1 -2 -3 -2 -1 -0 -0 0 0 0 0
3 3 3 2 2 2 1 1 1 1 2 2 3 4 5 6 6 7 8 8 8 8 8 8 7 7 6 4 3 2 1 -0 -1 -2 -2 -2 -1 -1 -0 0 0 0 -0 -0
3 3 3 2 2 2 2 2 2 2 2 3 4 5 6 7 7 8 8 8 8 8 8 7 7 7 6 4 3 2 -0 -2 -2 -2 -2 -1 -1 -0 0 0 -0 -0 -0 -0